Hourly Data Report for October 31, 2014

All times are specified in Local Standard Time (LST). Add 1 hour to adjust for Daylight Saving Time where and when it is observed.

RANKIN INLET A
NUNAVUT

62°48'38.000" N
92°06'53.000" W
32.30 m
2303405
71083
YRT

Download Data

Hourly Data (October 2014)
Hourly Data Report for October 31, 2014
Temp Definition
°C
Dew Point Temp Definition
°C
Rel Hum Definition
%
Wind Dir Definition
10's deg

Wind Spd Definition
km/h
Visibility Definition
km
Stn Press Definition
kPa
Hmdx Definition


Wind Chill Definition


Weather Definition


TIME
00:00 Legend Double Dagger -16.2 -18.6 82 29 14 24.1 101.97   -24 Ice Crystals
01:00 Legend Double Dagger -19.0 -21.6 80 30 14 24.1 101.97   -28 Ice Crystals
02:00 Legend Double Dagger -19.0 -21.6 80 31 10 24.1 101.88   -26 Ice Crystals
03:00 Legend Double Dagger -18.1 -20.6 81 32 9 24.1 101.87   -24 Ice Crystals
04:00 Legend Double Dagger -16.6 -19.0 82 2 6 6.4 101.82   -21 Ice Crystals
05:00 Legend Double Dagger -16.1 -18.5 82 36 3 6.4 101.79   -18 Ice Crystals
06:00 Legend Double Dagger -15.9 -18.2 83 31 5 0.4 101.75   -20 Freezing Fog
07:00 Legend Double Dagger -16.3 -18.7 82 1 9 0.4 101.74   -22 Freezing Fog
08:00 Legend Double Dagger -16.9 -19.3 82 1 14 1.6 101.72   -25 Fog
09:00 Legend Double Dagger -16.3 -18.7 82 3 10 2.4 101.67   -23 Fog
10:00 Legend Double Dagger -17.1 -19.6 81 35 12 2.4 101.72   -25 Fog
11:00 Legend Double Dagger -16.4 -18.8 82 35 13 3.2 101.71   -24 Fog
12:00 Legend Double Dagger -13.4 -15.4 85 1 8 1.2 101.63   -18 Snow,Fog
13:00 Legend Double Dagger -12.5 -14.4 86 2 13 0.2 101.69   -19 Snow Grains,Freezing Fog
14:00 Legend Double Dagger -12.5 -14.4 86 5 17 0.2 101.68   -20 Snow Grains,Freezing Fog
15:00 Legend Double Dagger -10.6 -12.4 87 8 10 2.4 101.68   -16 Snow Grains,Fog
16:00 Legend Double Dagger -11.7 -13.6 86 36 10 16.1 101.75   -17 LegendNANA
17:00 Legend Double Dagger -10.2 -11.8 88 6 11 16.1 101.72   -16 LegendNANA
18:00 Legend Double Dagger -8.6 -10.1 89 7 14 3.2 101.69   -15 Fog
19:00 Legend Double Dagger -7.6 -9.0 90 10 13 4.8 101.71   -13 Fog
20:00 Legend Double Dagger -7.2 -8.4 91 11 8 16.1 101.70   -11 LegendNANA
21:00 Legend Double Dagger -6.7 -7.9 91 16 24 16.1 101.65   -14 Cloudy
22:00 Legend Double Dagger -6.3 -7.4 92 14 18 24.1 101.68   -13 LegendNANA
23:00 Legend Double Dagger -5.6 -6.7 92 14 22 24.1 101.63   -13 LegendNANA

Notes on Data Quality.

Legend

  • E = Estimated
  • M = Missing
  • NA = Not Available
  • ‡ = Partner data that is not subject to review by the National Climate Archives
Date modified: